[[{"header":{"parameterUnit":"m.s-1","parameterCategory":1,"la1":30.2991,"la2":30.254,"lo1":-89.0895,"lo2":-89.0444,"dy":0.0017,"dx":0.0017,"nx":28,"ny":28,"refTime":"2023-10-21T09:00:00:Z","depth":0,"parameterNumber":2,"parameterNumberName":"U-component_of_WINDS"},"data":[0,0,0,0,0,0,0,0,0,0,0,0,0,0,0,0,0,0,0,0,0,0,0,0,0,0,0,0,0,0,0,0,0,0,0,0,0,0,0,0,0,0,0,0,0,0,0,0,0,0,0,0,0,0,0,0,0,0,-0.6966,-0.6965,0,-0.6877,-0.6876,-0.6875,-0.6788,-0.6787,-0.6786,-0.6785,-0.6694,-0.6693,-0.6691,0,0,0,0,0,0,0,0,0,0,0,0,0,-0.7061,-0.706,-0.6966,-0.6965,-0.6964,-0.6878,-0.6876,-0.6875,-0.6788,-0.6787,-0.6786,-0.6784,-0.6694,-0.6693,-0.6691,0,0,0,0,0,0,0,0,0,0,0,0,0,-0.7001,-0.7059,-0.6966,-0.691,-0.6904,-0.6878,-0.6876,-0.6875,-0.6789,-0.6787,-0.6785,-0.6784,-0.6695,-0.6693,-0.6691,-0.6713,0,0,-0.6685,-0.6684,0,0,0,0,0,0,0,0,-0.7004,-0.6997,-0.6919,-0.6914,-0.6907,-0.6842,-0.6876,-0.6821,-0.6789,-0.6832,-0.6785,-0.6783,-0.6745,-0.6738,-0.6726,-0.6709,-0.6705,-0.6685,-0.6683,-0.6683,-0.6682,0,0,0,0,0,0,0,-0.7009,-0.7001,-0.6931,-0.6918,-0.6911,-0.689,-0.6879,-0.6866,-0.6799,-0.6829,-0.6822,-0.6813,-0.6741,-0.6728,-0.6723,-0.6703,-0.6685,-0.6683,-0.6682,-0.6681,-0.6702,-0.6703,0,0,0,0,0,0,-0.7021,-0.7005,-0.6934,-0.6928,-0.6952,-0.6889,-0.6878,-0.6865,-0.6799,-0.6788,-0.6814,-0.6809,-0.6732,-0.6725,-0.6719,-0.6741,-0.6683,-0.6681,-0.668,-0.67,-0.6702,-0.6704,0,0,0,0,0,0,-0.7024,-0.7016,-0.6937,-0.6965,-0.6953,-0.689,-0.6876,-0.6864,-0.685,-0.6788,-0.6776,-0.6813,-0.673,-0.6722,-0.6716,-0.6737,-0.668,-0.6678,-0.6698,-0.6701,-0.6703,-0.6785,0,0,0,0,0,0,-0.7027,-0.7017,-0.7024,-0.6966,-0.6952,-0.6935,-0.6877,-0.6863,-0.6847,-0.684,-0.6784,-0.6773,-0.6728,-0.6719,-0.6714,-0.6733,-0.6676,-0.6696,-0.6699,-0.6702,-0.678,-0.679,-0.6798,0,0,0,0,0,-0.703,-0.705,-0.7025,-0.7017,-0.696,-0.6936,-0.6928,-0.6877,-0.6849,-0.6856,-0.6817,-0.6775,-0.6736,-0.6719,-0.6712,-0.6731,-0.6694,-0.6698,-0.6702,-0.6776,-0.6788,-0.6798,0,0,0,0,0,0,-0.7112,-0.7042,-0.7013,-0.7014,-0.6982,-0.6921,-0.6928,-0.6891,-0.6866,-0.6859,-0.6797,-0.6785,-0.6786,-0.6758,-0.6741,-0.675,-0.6709,-0.6712,-0.6767,-0.6779,-0.6788,-0.6794,-0.6675,0,0,0,0,0,-0.7131,-0.7118,-0.7056,-0.7064,-0.7049,-0.6992,-0.698,-0.6943,-0.6907,-0.6893,-0.6853,-0.682,-0.68,-0.6788,-0.6766,-0.6776,-0.6763,-0.6786,-0.6795,-0.6803,-0.6806,-0.681,-0.682,-0.6717,-0.6717,-0.6717,0,0,-0.7169,-0.7128,-0.7123,-0.7079,-0.705,-0.7038,-0.6981,-0.697,-0.6961,-0.6891,-0.6882,-0.6852,-0.6811,-0.6813,-0.6812,-0.679,-0.6832,-0.6808,-0.6815,-0.6813,-0.6815,-0.6825,-0.6834,-0.672,-0.6719,-0.6719,0,0,-0.7231,-0.7199,-0.7202,-0.7174,-0.7131,-0.7093,-0.7094,-0.704,-0.7017,-0.7008,-0.6955,-0.6944,-0.6911,-0.6884,-0.6866,-0.6921,-0.6882,-0.6916,-0.6964,-0.6969,-0.6977,-0.6984,-0.7003,-0.7011,-0.692,-0.692,-0.692,0,-0.7282,-0.7262,-0.7208,-0.7201,-0.7183,-0.7121,-0.7124,-0.71,-0.7052,-0.7041,-0.7018,-0.6976,-0.6944,-0.6939,-0.6953,-0.6941,-0.694,-0.6921,-0.698,-0.6987,-0.6992,-0.701,-0.7018,-0.6924,-0.6924,-0.6923,-0.6923,0,-0.7328,-0.7315,-0.7323,-0.7278,-0.7262,-0.726,-0.7206,-0.7197,-0.7163,-0.7128,-0.712,-0.708,-0.7049,-0.7046,-0.7012,-0.7037,-0.7025,-0.6992,-0.6949,-0.7007,-0.7023,-0.703,-0.6931,-0.6929,-0.6928,-0.6927,0,0,-0.7436,-0.7364,-0.7368,-0.7348,-0.7297,-0.7286,-0.7282,-0.7253,-0.7246,-0.7216,-0.7211,-0.7186,-0.7156,-0.7136,-0.7099,-0.7103,-0.715,-0.7069,-0.7067,-0.7085,-0.7175,-0.72,-0.7209,-0.7124,-0.7125,-0.7126,-0.7179,0,-0.7489,-0.7478,-0.743,-0.7433,-0.7421,-0.7363,-0.736,-0.7329,-0.7297,-0.7282,-0.7247,-0.723,-0.7192,-0.7179,-0.7181,-0.7144,-0.7167,-0.714,-0.7119,-0.7119,-0.713,-0.7217,-0.7242,-0.7293,-0.7185,-0.7186,-0.7186,0,-0.7548,-0.7523,-0.7525,-0.7475,-0.7468,-0.7466,-0.7436,-0.7423,-0.7387,-0.7364,-0.7343,-0.7302,-0.7296,-0.7258,-0.7249,-0.7231,-0.7221,-0.7201,-0.7202,-0.7197,-0.7155,-0.7213,-0.7308,-0.7316,-0.7196,-0.7195,-0.7194,0,-0.7627,-0.7593,-0.759,-0.7574,-0.7517,-0.7517,-0.7493,-0.7456,-0.7442,-0.7417,-0.7407,-0.7381,-0.7367,-0.7349,-0.7302,-0.7279,-0.7299,-0.7256,-0.7279,-0.728,-0.7284,-0.7284,-0.7378,-0.7279,-0.7279,-0.7279,-0.7279,0,-0.769,-0.7693,-0.7624,-0.7622,-0.7625,-0.7572,-0.7576,-0.7546,-0.7514,-0.7506,-0.7455,-0.7449,-0.7389,-0.7376,-0.734,-0.7338,-0.7332,-0.7313,-0.7303,-0.7317,-0.7319,-0.7308,-0.7303,-0.7281,-0.7281,-0.728,-0.728,0,-0.7777,-0.7731,-0.7724,-0.7671,-0.7658,-0.7662,-0.7617,-0.7613,-0.758,-0.757,-0.7565,-0.7512,-0.7494,-0.7447,-0.7417,-0.7393,-0.7401,-0.7383,-0.7413,-0.7406,-0.7431,-0.7429,-0.752,-0.7529,-0.7426,-0.7427,-0.7428,0,-0.7819,-0.782,-0.7768,-0.7759,-0.7738,-0.7724,-0.771,-0.7658,-0.7646,-0.7607,-0.7608,-0.7587,-0.7566,-0.7541,-0.75,-0.7478,-0.7458,-0.7492,-0.7454,-0.7469,-0.7458,-0.7458,-0.7458,-0.7499,-0.7501,-0.7502,-0.7503,0,-0.7899,-0.7877,-0.7858,-0.7833,-0.7818,-0.7795,-0.777,-0.7766,-0.7708,-0.7697,-0.7678,-0.7663,-0.7633,-0.7613,-0.7584,-0.756,-0.7522,-0.7515,-0.7519,-0.7532,-0.7549,-0.754,-0.7434,-0.7513,-0.7512,-0.7511,-0.7511,-0.751,-0.7964,-0.7963,-0.7927,-0.7908,-0.7884,-0.7862,-0.7857,-0.7823,-0.7807,-0.7778,-0.775,-0.7735,-0.7701,-0.7658,-0.7638,-0.7625,-0.7605,-0.7611,-0.7612,-0.7614,-0.7621,-0.7553,-0.762,-0.762,-0.762,-0.7619,-0.7619,0,-0.8041,-0.8016,-0.8,-0.7966,-0.7952,-0.7919,-0.789,-0.788,-0.7868,-0.7839,-0.7821,-0.7801,-0.7782,-0.7741,-0.7717,-0.7716,-0.7698,-0.7712,-0.771,-0.7706,-0.764,-0.7639,-0.7726,-0.7726,-0.7726,-0.7726,-0.7726,-0.7726,-0.8079,-0.8076,-0.805,-0.8035,-0.8009,-0.7994,-0.7981,-0.796,-0.7938,-0.7917,-0.7901,-0.7875,-0.7842,-0.7816,-0.7797,-0.7786,-0.7779,-0.7799,-0.7782,-0.772,-0.771,-0.77,-0.7699,-0.7798,-0.7798,-0.7848,-0.7848,-0.7849]},{"header":{"parameterUnit":"m.s-1","parameterCategory":1,"la1":30.2991,"la2":30.254,"lo1":-89.0895,"lo2":-89.0444,"dy":0.0017,"dx":0.0017,"nx":28,"ny":28,"refTime":"2023-10-21T09:00:00:Z","depth":0,"parameterNumber":3,"parameterNumberName":"V-component_of_WINDS"},"data":[0,0,0,0,0,0,0,0,0,0,0,0,0,0,0,0,0,0,0,0,0,0,0,0,0,0,0,0,0,0,0,0,0,0,0,0,0,0,0,0,0,0,0,0,0,0,0,0,0,0,0,0,0,0,0,0,0,0,2.272,2.272,0,2.2737,2.2738,2.2738,2.2803,2.2805,2.2806,2.2808,2.282,2.2819,2.2818,0,0,0,0,0,0,0,0,0,0,0,0,0,2.2739,2.2738,2.272,2.272,2.2721,2.2737,2.2738,2.2738,2.2803,2.2805,2.2807,2.2808,2.282,2.2819,2.2818,0,0,0,0,0,0,0,0,0,0,0,0,0,2.2741,2.2738,2.272,2.2755,2.2759,2.2737,2.2738,2.2738,2.2803,2.2805,2.2807,2.2809,2.2821,2.2819,2.2817,2.2762,0,0,2.2813,2.2812,0,0,0,0,0,0,0,0,2.2741,2.274,2.275,2.2753,2.2756,2.2771,2.2749,2.2746,2.2802,2.2786,2.2808,2.281,2.2801,2.2801,2.28,2.2763,2.2763,2.2812,2.2811,2.2811,2.281,0,0,0,0,0,0,0,2.274,2.274,2.2727,2.275,2.2754,2.2769,2.2771,2.2749,2.278,2.2787,2.2792,2.2794,2.2803,2.2801,2.28,2.2763,2.2812,2.2811,2.281,2.2809,2.2683,2.2681,0,0,0,0,0,0,2.2736,2.2739,2.2726,2.2727,2.2754,2.2766,2.277,2.2764,2.2781,2.2786,2.2792,2.2797,2.2803,2.2802,2.2801,2.2738,2.2811,2.2809,2.2808,2.2685,2.2682,2.268,0,0,0,0,0,0,2.2736,2.2734,2.2726,2.2735,2.2735,2.2764,2.2757,2.2763,2.276,2.2784,2.279,2.2783,2.2804,2.2803,2.2772,2.2739,2.2808,2.2807,2.2688,2.2684,2.2681,2.2611,0,0,0,0,0,0,2.2736,2.2734,2.2714,2.2734,2.2734,2.2697,2.2755,2.2762,2.2758,2.2765,2.2778,2.2782,2.2806,2.2774,2.277,2.2738,2.2806,2.2691,2.2686,2.2682,2.2616,2.2605,2.2596,0,0,0,0,0,2.2737,2.2692,2.2713,2.2711,2.271,2.2695,2.2695,2.2725,2.2755,2.2735,2.275,2.2782,2.2744,2.277,2.2767,2.2733,2.2693,2.2688,2.2683,2.2621,2.2607,2.2596,0,0,0,0,0,0,2.2665,2.2695,2.2718,2.2679,2.2684,2.2706,2.2682,2.271,2.2705,2.2711,2.2747,2.2749,2.2713,2.272,2.2749,2.2681,2.2724,2.2717,2.2678,2.2665,2.2655,2.2654,2.2804,0,0,0,0,0,2.2645,2.2633,2.2659,2.2621,2.2623,2.2652,2.2646,2.2669,2.2675,2.2677,2.2691,2.2694,2.2683,2.2675,2.2666,2.2618,2.2621,2.2593,2.2583,2.2575,2.2568,2.2544,2.2532,2.2662,2.2662,2.2662,0,0,2.2603,2.2618,2.2607,2.2607,2.2614,2.2599,2.2653,2.2634,2.2623,2.2674,2.2646,2.2656,2.2662,2.2622,2.2605,2.2627,2.2534,2.2568,2.2561,2.2559,2.2537,2.2525,2.2514,2.2659,2.2659,2.266,0,0,2.2519,2.2529,2.2499,2.2506,2.2516,2.2536,2.2529,2.2547,2.2556,2.2529,2.2567,2.2554,2.2534,2.2537,2.2536,2.2454,2.2483,2.245,2.2397,2.2372,2.2362,2.2353,2.2324,2.2313,2.2444,2.2444,2.2444,0,2.2464,2.2444,2.248,2.2459,2.2458,2.2506,2.2476,2.248,2.2486,2.2483,2.2508,2.2485,2.2493,2.2455,2.2435,2.2433,2.2425,2.2448,2.2361,2.2353,2.2345,2.2317,2.2306,2.244,2.244,2.244,2.2441,0,2.2377,2.2362,2.2337,2.2344,2.234,2.2315,2.2345,2.2337,2.236,2.2377,2.2349,2.236,2.2354,2.2347,2.2369,2.2312,2.2326,2.2355,2.2398,2.2328,2.2302,2.2292,2.2434,2.2435,2.2436,2.2437,0,0,2.2246,2.2275,2.2265,2.227,2.2286,2.2274,2.2251,2.2248,2.224,2.2242,2.2223,2.2206,2.2234,2.2233,2.2256,2.2235,2.217,2.2267,2.2268,2.2248,2.2108,2.2085,2.2073,2.2189,2.2187,2.2186,2.2108,0,2.2166,2.2129,2.2161,2.2118,2.2105,2.2151,2.2131,2.2138,2.2153,2.2143,2.2159,2.2147,2.2185,2.2185,2.2166,2.2181,2.2142,2.2188,2.217,2.2169,2.2167,2.206,2.2035,2.1961,2.2098,2.2096,2.2095,0,2.2067,2.2068,2.2024,2.2044,2.204,2.2021,2.2021,2.2012,2.202,2.2033,2.2032,2.2061,2.2039,2.2082,2.2051,2.2081,2.2076,2.2083,2.2081,2.208,2.2127,2.2055,2.1938,2.1926,2.208,2.2081,2.2082,0,2.1976,2.1966,2.1939,2.1941,2.1964,2.195,2.1958,2.1969,2.1966,2.1965,2.1963,2.1959,2.1957,2.1953,2.198,2.2009,2.1945,2.1991,2.1954,2.1953,2.1938,2.1938,2.1817,2.1935,2.1935,2.1936,2.1936,0,2.1883,2.1854,2.1899,2.1882,2.1851,2.1888,2.1855,2.1868,2.1878,2.1864,2.1903,2.1888,2.1925,2.1914,2.1934,2.1906,2.1904,2.1913,2.1919,2.1909,2.1908,2.1906,2.1912,2.1933,2.1933,2.1934,2.1934,0,2.1776,2.1805,2.1778,2.1803,2.1808,2.1784,2.1805,2.1789,2.1808,2.1789,2.1787,2.1815,2.1805,2.1831,2.1823,2.1838,2.1797,2.1811,2.1794,2.1798,2.176,2.1763,2.1633,2.1618,2.1746,2.1744,2.1743,0,2.1714,2.1693,2.1717,2.1711,2.1718,2.1708,2.1705,2.174,2.1735,2.1745,2.1728,2.1721,2.1717,2.1697,2.1716,2.1711,2.1725,2.168,2.1724,2.1716,2.1724,2.1725,2.1723,2.167,2.1669,2.1667,2.1666,0,2.1602,2.1618,2.1613,2.1614,2.161,2.1611,2.1616,2.1608,2.1646,2.1638,2.1629,2.1626,2.162,2.1612,2.1611,2.1618,2.1648,2.1653,2.1644,2.1634,2.1625,2.1629,2.1769,2.1655,2.1656,2.1657,2.1658,2.1658,2.1515,2.15,2.1514,2.1508,2.1515,2.1518,2.1506,2.1524,2.1517,2.1516,2.1537,2.1523,2.1533,2.1535,2.154,2.1529,2.1549,2.1536,2.1533,2.1529,2.1523,2.1627,2.1528,2.1529,2.1529,2.1529,2.153,0,2.1405,2.1417,2.1411,2.1417,2.1412,2.1443,2.145,2.1443,2.1431,2.1438,2.1435,2.1424,2.1417,2.1436,2.1432,2.1419,2.1433,2.1417,2.1418,2.1419,2.1505,2.1513,2.1406,2.1406,2.1406,2.1406,2.1406,2.1406,2.1347,2.1322,2.134,2.1319,2.1331,2.1319,2.132,2.1323,2.133,2.1316,2.1312,2.1325,2.1337,2.1334,2.1329,2.1335,2.1331,2.131,2.1321,2.1401,2.1413,2.1424,2.1432,2.1309,2.1309,2.1236,2.1235,2.1234]}]]